| time (UTC) | temp F | wind direction | speed knots | gust knots | rain 1hr in | rain 24hr in | rain mn in | humidity % | barometer mb |
| 20260906083004 | 93 | 254 | 2.6 | 6.1 | 0.00 | 0.00 | 0.00 | 26 | 1018.9 |
| 20260906082504 | 91 | 283 | 2.6 | 4.3 | 0.00 | 0.00 | 0.00 | 29 | 1018.9 |
| 20260906082003 | 90 | 274 | 3.5 | 4.3 | 0.00 | 0.00 | 0.00 | 31 | 1019.1 |
| 20260906081503 | 90 | 285 | 4.3 | 5.2 | 0.00 | 0.00 | 0.00 | 30 | 1019.1 |
| 20260906081004 | 89 | 315 | 4.3 | 5.2 | 0.00 | 0.00 | 0.00 | 31 | 1019.0 |
| 20260906080503 | 89 | 18 | 4.3 | 5.2 | 0.00 | 0.00 | 0.00 | 31 | 1019.1 |
| 20260906075503 | 88 | 264 | 3.5 | 5.2 | 0.00 | 0.00 | 0.00 | 32 | 1019.0 |
| 20260906075003 | 87 | 291 | 4.3 | 6.1 | 0.00 | 0.00 | 0.00 | 33 | 1019.1 |
| 20260906074003 | 86 | 358 | 3.5 | 4.3 | 0.00 | 0.00 | 0.00 | 35 | 1019.1 |
| 20260906073503 | 86 | 8 | 5.2 | 7.0 | 0.00 | 0.00 | 0.00 | 35 | 1018.9 |
| 20260906072504 | 85 | 313 | 4.3 | 6.1 | 0.00 | 0.00 | 0.00 | 37 | 1018.8 |
| 20260906072004 | 84 | 297 | 4.3 | 6.1 | 0.00 | 0.00 | 0.00 | 37 | 1018.8 |
| 20260906071504 | 84 | 301 | 5.2 | 6.1 | 0.00 | 0.00 | 0.00 | 38 | 1018.7 |
| 20260906070503 | 84 | 271 | 4.3 | 6.1 | 0.00 | 0.00 | 0.00 | 38 | 1018.7 |
| 20260906070004 | 83 | 274 | 4.3 | 5.2 | 0.00 | 0.00 | 0.00 | 40 | 1018.6 |
| 20260906065503 | 82 | 278 | 4.3 | 5.2 | 0.00 | 0.00 | 0.00 | 40 | 1018.8 |
| 20260906065004 | 82 | 292 | 4.3 | 5.2 | 0.00 | 0.00 | 0.00 | 40 | 1018.6 |
| 20260906064003 | 81 | 321 | 4.3 | 6.1 | 0.00 | 0.00 | 0.00 | 44 | 1018.6 |
| 20260906063003 | 80 | 310 | 3.5 | 3.5 | 0.00 | 0.00 | 0.00 | 45 | 1018.7 |
| 20260906061004 | 77 | 249 | 1.7 | 2.6 | 0.00 | 0.00 | 0.00 | 52 | 1018.4 |
| 20260906060504 | 77 | 222 | 2.6 | 3.5 | 0.00 | 0.00 | 0.00 | 53 | 1018.4 |
| 20260906060004 | 76 | 222 | 2.6 | 3.5 | 0.00 | 0.00 | 0.00 | 52 | 1018.4 |
| 20260906055003 | 74 | 237 | 2.6 | 3.5 | 0.00 | 0.00 | 0.00 | 56 | 1018.4 |
| 20260906054504 | 74 | 222 | 2.6 | 2.6 | 0.00 | 0.00 | 0.00 | 56 | 1018.4 |
| 20260906053504 | 72 | 248 | 1.7 | 2.6 | 0.00 | 0.00 | 0.00 | 61 | 1018.3 |
| 20260906053003 | 72 | 230 | 2.6 | 3.5 | 0.00 | 0.00 | 0.00 | 63 | 1018.4 |
| 20260906052504 | 71 | 221 | 2.6 | 3.5 | 0.00 | 0.00 | 0.00 | 64 | 1018.4 |
| 20260906052004 | 70 | 250 | 2.6 | 3.5 | 0.00 | 0.00 | 0.00 | 65 | 1018.3 |
| 20260906051504 | 69 | 293 | 2.6 | 3.5 | 0.00 | 0.00 | 0.00 | 67 | 1018.3 |
| 20260906051004 | 69 | 327 | 2.6 | 3.5 | 0.00 | 0.00 | 0.00 | 67 | 1018.3 |
| 20260906050504 | 68 | 316 | 2.6 | 3.5 | 0.00 | 0.00 | 0.00 | 66 | 1018.2 |
| 20260906050004 | 68 | 297 | 2.6 | 3.5 | 0.00 | 0.00 | 0.00 | 65 | 1018.1 |
| 20260906045003 | 67 | 312 | 3.5 | 4.3 | 0.00 | 0.00 | 0.00 | 69 | 1018.1 |
| 20260906044503 | 65 | 327 | 2.6 | 4.3 | 0.00 | 0.00 | 0.00 | 71 | 1018.1 |
| 20260906044004 | 65 | 346 | 1.7 | 1.7 | 0.00 | 0.00 | 0.00 | 72 | 1018.0 |
| 20260906043504 | 64 | 26 | 1.7 | 1.7 | 0.00 | 0.00 | 0.00 | 72 | 1018.0 |
| 20260906043004 | 64 | 49 | 1.7 | 1.7 | 0.00 | 0.00 | 0.00 | 72 | 1018.0 |
| 20260906042504 | 64 | 61 | 1.7 | 1.7 | 0.00 | 0.00 | 0.00 | 74 | 1017.9 |
| 20260906041004 | 63 | 170 | 0.0 | 1.7 | 0.00 | 0.00 | 0.00 | 77 | 1017.8 |
| 20260906040503 | 64 | 29 | 0.9 | 1.7 | 0.00 | 0.00 | 0.00 | 73 | 1017.6 |
| 20260906040004 | 64 | 47 | 1.7 | 1.7 | 0.00 | 0.00 | 0.00 | 73 | 1017.4 |
| 20260906035503 | 63 | 80 | 1.7 | 1.7 | 0.00 | 0.00 | 0.00 | 78 | 1017.4 |
| 20260906035004 | 63 | 129 | 0.9 | 1.7 | 0.00 | 0.00 | 0.00 | 79 | 1017.5 |
| 20260906034504 | 63 | 119 | 1.7 | 1.7 | 0.00 | 0.00 | 0.00 | 76 | 1017.5 |
| 20260906034005 | 65 | 74 | 0.9 | 1.7 | 0.00 | 0.00 | 0.00 | 71 | 1017.4 |
| 20260906033504 | 65 | 55 | 1.7 | 1.7 | 0.00 | 0.00 | 0.00 | 72 | 1017.4 |
| 20260906032504 | 64 | 82 | 1.7 | 2.6 | 0.00 | 0.00 | 0.00 | 75 | 1017.2 |
| 20260906031504 | 64 | 188 | 2.6 | 3.5 | 0.00 | 0.00 | 0.00 | 74 | 1017.2 |
| 20260906031004 | 64 | 169 | 3.5 | 4.3 | 0.00 | 0.00 | 0.00 | 72 | 1017.1 |
| 20260906030504 | 66 | 48 | 3.5 | 5.2 | 0.00 | 0.00 | 0.00 | 69 | 1017.2 |
| 20260906030004 | 66 | 40 | 3.5 | 5.2 | 0.00 | 0.00 | 0.00 | 67 | 1017.0 |
| 20260906025504 | 65 | 40 | 2.6 | 3.5 | 0.00 | 0.00 | 0.00 | 72 | 1017.1 |
| 20260906025004 | 64 | 58 | 2.6 | 3.5 | 0.00 | 0.00 | 0.00 | 75 | 1017.0 |
| 20260906024505 | 64 | 94 | 2.6 | 2.6 | 0.00 | 0.00 | 0.00 | 77 | 1017.1 |
| 20260906024005 | 64 | 114 | 2.6 | 2.6 | 0.00 | 0.00 | 0.00 | 76 | 1017.0 |
| 20260906023004 | 64 | 81 | 1.7 | 2.6 | 0.00 | 0.00 | 0.00 | 76 | 1017.0 |
| 20260906022504 | 64 | 31 | 1.7 | 2.6 | 0.00 | 0.00 | 0.00 | 75 | 1017.0 |
| 20260906022004 | 64 | 267 | 0.9 | 1.7 | 0.00 | 0.00 | 0.00 | 74 | 1017.0 |
| 20260906021004 | 65 | 322 | 1.7 | 2.6 | 0.00 | 0.00 | 0.00 | 73 | 1017.0 |
| 20260906020504 | 65 | 352 | 1.7 | 2.6 | 0.00 | 0.00 | 0.00 | 74 | 1017.1 |
| 20260906020005 | 66 | 24 | 1.7 | 2.6 | 0.00 | 0.00 | 0.00 | 73 | 1017.2 |
| 20260906015504 | 66 | 71 | 1.7 | 1.7 | 0.00 | 0.00 | 0.00 | 74 | 1017.2 |
| 20260906015004 | 65 | 83 | 1.7 | 1.7 | 0.00 | 0.00 | 0.00 | 74 | 1017.4 |
| 20260906014504 | 65 | 64 | 1.7 | 1.7 | 0.00 | 0.00 | 0.00 | 76 | 1017.5 |
| 20260906014004 | 65 | 50 | 1.7 | 1.7 | 0.00 | 0.00 | 0.00 | 76 | 1017.3 |
| 20260906013504 | 65 | 88 | 0.9 | 1.7 | 0.00 | 0.00 | 0.00 | 76 | 1017.5 |
| 20260906013004 | 65 | 191 | 1.7 | 2.6 | 0.00 | 0.00 | 0.00 | 75 | 1017.3 |
| 20260906012504 | 65 | 214 | 1.7 | 2.6 | 0.00 | 0.00 | 0.00 | 76 | 1017.4 |
| 20260906012005 | 65 | 98 | 1.7 | 5.2 | 0.00 | 0.00 | 0.00 | 74 | 1017.4 |
| 20260906011504 | 66 | 67 | 2.6 | 5.2 | 0.00 | 0.00 | 0.00 | 73 | 1017.4 |
| 20260906011004 | 66 | 25 | 1.7 | 2.6 | 0.00 | 0.00 | 0.00 | 73 | 1017.4 |
| 20260906010504 | 66 | 3 | 1.7 | 1.7 | 0.00 | 0.00 | 0.00 | 76 | 1017.4 |
| 20260906005504 | 64 | 95 | 0.9 | 1.7 | 0.00 | 0.00 | 0.00 | 79 | 1017.6 |
| 20260906005005 | 64 | 135 | 0.9 | 1.7 | 0.00 | 0.00 | 0.00 | 79 | 1017.5 |
| 20260906004005 | 64 | 122 | 1.7 | 1.7 | 0.00 | 0.00 | 0.00 | 78 | 1017.5 |
| 20260906003504 | 65 | 108 | 0.9 | 1.7 | 0.00 | 0.00 | 0.00 | 77 | 1017.6 |
| 20260906003004 | 65 | 181 | 0.0 | 0.9 | 0.00 | 0.00 | 0.00 | 77 | 1017.7 |
| 20260906002504 | 65 | 147 | 0.9 | 2.6 | 0.00 | 0.00 | 0.00 | 77 | 1017.7 |
| 20260906002004 | 66 | 123 | 1.7 | 2.6 | 0.00 | 0.00 | 0.00 | 77 | 1017.6 |
| 20260906001504 | 66 | 118 | 1.7 | 2.6 | 0.00 | 0.00 | 0.00 | 77 | 1017.7 |
| 20260906001004 | 66 | 136 | 1.7 | 1.7 | 0.00 | 0.00 | 0.00 | 78 | 1017.7 |
| 20260906000504 | 66 | 108 | 1.7 | 1.7 | 0.00 | 0.00 | 0.00 | 78 | 1017.8 |
| 20260905235505 | 66 | 333 | 1.7 | 1.7 | 0.00 | 0.00 | 0.00 | 79 | 1017.9 |
| 20260905235005 | 66 | 250 | 1.7 | 1.7 | 0.00 | 0.00 | 0.00 | 78 | 1018.0 |
| 20260905234504 | 66 | 200 | 0.9 | 2.6 | 0.00 | 0.00 | 0.00 | 77 | 1017.9 |
| 20260905234004 | 67 | 115 | 1.7 | 3.5 | 0.00 | 0.00 | 0.00 | 76 | 1017.8 |
| 20260905233504 | 67 | 114 | 2.6 | 3.5 | 0.00 | 0.00 | 0.00 | 77 | 1017.9 |
| 20260905233005 | 67 | 125 | 1.7 | 3.5 | 0.00 | 0.00 | 0.00 | 77 | 1018.0 |
| 20260905232505 | 67 | 126 | 1.7 | 1.7 | 0.00 | 0.00 | 0.00 | 76 | 1018.0 |
| 20260905231504 | 67 | 157 | 0.9 | 1.7 | 0.00 | 0.00 | 0.00 | 75 | 1018.0 |
| 20260905231004 | 67 | 178 | 0.9 | 1.7 | 0.00 | 0.00 | 0.00 | 75 | 1018.1 |
| 20260905230504 | 67 | 184 | 0.0 | 1.7 | 0.00 | 0.00 | 0.00 | 73 | 1018.1 |
| 20260905230004 | 68 | 270 | 0.0 | 0.9 | 0.00 | 0.00 | 0.00 | 73 | 1018.1 |
| 20260905225504 | 68 | 270 | 0.0 | 0.9 | 0.00 | 0.00 | 0.00 | 74 | 1018.0 |
| 20260905225004 | 68 | 270 | 0.9 | 1.7 | 0.00 | 0.00 | 0.00 | 75 | 1018.1 |
| 20260905224004 | 69 | 332 | 0.9 | 1.7 | 0.00 | 0.00 | 0.00 | 72 | 1018.1 |
| 20260905223504 | 70 | 122 | 0.9 | 1.7 | 0.00 | 0.00 | 0.00 | 72 | 1018.2 |
| 20260905223004 | 70 | 143 | 1.7 | 1.7 | 0.00 | 0.00 | 0.00 | 72 | 1018.2 |
| 20260905222005 | 70 | 83 | 1.7 | 1.7 | 0.00 | 0.00 | 0.00 | 71 | 1018.3 |
| 20260905221505 | 70 | 53 | 0.9 | 1.7 | 0.00 | 0.00 | 0.00 | 72 | 1018.5 |
| 20260905221005 | 70 | 60 | 0.0 | 1.7 | 0.00 | 0.00 | 0.00 | 71 | 1018.4 |
| 20260905220504 | 69 | 90 | 0.0 | 0.9 | 0.00 | 0.00 | 0.00 | 72 | 1018.5 |
| 20260905220004 | 69 | 0 | 0.0 | 0.0 | 0.00 | 0.00 | 0.00 | 71 | 1018.5 |
| 20260905215505 | 70 | 90 | 0.0 | 0.9 | 0.00 | 0.00 | 0.00 | 71 | 1018.4 |
| 20260905215004 | 70 | 84 | 0.9 | 1.7 | 0.00 | 0.00 | 0.00 | 71 | 1018.5 |
| 20260905214004 | 70 | 102 | 1.7 | 1.7 | 0.00 | 0.00 | 0.00 | 72 | 1018.5 |
| 20260905213504 | 70 | 127 | 0.9 | 1.7 | 0.00 | 0.00 | 0.00 | 72 | 1018.5 |
| 20260905213004 | 71 | 158 | 0.9 | 1.7 | 0.00 | 0.00 | 0.00 | 72 | 1018.5 |
| 20260905212504 | 71 | 139 | 0.9 | 1.7 | 0.00 | 0.00 | 0.00 | 72 | 1018.6 |
| 20260905212012 | 71 | 130 | 1.7 | 1.7 | 0.00 | 0.00 | 0.00 | 71 | 1018.6 |
| 20260905211505 | 71 | 125 | 1.7 | 1.7 | 0.00 | 0.00 | 0.00 | 71 | 1018.7 |
| 20260905210505 | 72 | 123 | 1.7 | 2.6 | 0.00 | 0.00 | 0.00 | 72 | 1018.8 |
| 20260905210010 | 72 | 149 | 0.9 | 1.7 | 0.00 | 0.00 | 0.00 | 72 | 1018.7 |
| 20260905205504 | 72 | 140 | 0.9 | 1.7 | 0.00 | 0.00 | 0.00 | 72 | 1018.9 |
| 20260905204511 | 72 | 94 | 1.7 | 2.6 | 0.00 | 0.00 | 0.00 | 72 | 1018.9 |
| 20260905204005 | 72 | 94 | 2.6 | 2.6 | 0.00 | 0.00 | 0.00 | 70 | 1018.8 |
| 20260905203505 | 72 | 99 | 2.6 | 2.6 | 0.00 | 0.00 | 0.00 | 72 | 1018.8 |
| 20260905203005 | 72 | 105 | 1.7 | 2.6 | 0.00 | 0.00 | 0.00 | 72 | 1018.8 |
| 20260905202506 | 72 | 73 | 1.7 | 2.6 | 0.00 | 0.00 | 0.00 | 71 | 1018.9 |
| 20260905202011 | 73 | 57 | 1.7 | 2.6 | 0.00 | 0.00 | 0.00 | 68 | 1019.0 |
| 20260905201504 | 72 | 94 | 0.9 | 2.6 | 0.00 | 0.00 | 0.00 | 71 | 1018.9 |
| 20260905201006 | 73 | 100 | 1.7 | 2.6 | 0.00 | 0.00 | 0.00 | 70 | 1018.9 |
| 20260905200505 | 73 | 102 | 1.7 | 2.6 | 0.00 | 0.00 | 0.00 | 70 | 1019.0 |
| 20260905200004 | 72 | 108 | 1.7 | 1.7 | 0.00 | 0.00 | 0.00 | 70 | 1018.9 |
| 20260905195505 | 73 | 133 | 1.7 | 1.7 | 0.00 | 0.00 | 0.00 | 69 | 1018.9 |
| 20260905195005 | 73 | 131 | 1.7 | 1.7 | 0.00 | 0.00 | 0.00 | 67 | 1018.9 |
| 20260905194506 | 74 | 42 | 1.7 | 1.7 | 0.00 | 0.00 | 0.00 | 66 | 1018.9 |
| 20260905194005 | 75 | 38 | 2.6 | 3.5 | 0.00 | 0.00 | 0.00 | 62 | 1018.9 |
| 20260905193504 | 75 | 47 | 2.6 | 3.5 | 0.00 | 0.00 | 0.00 | 63 | 1019.0 |
| 20260905192505 | 74 | 88 | 1.7 | 1.7 | 0.00 | 0.00 | 0.00 | 72 | 1018.9 |
| 20260905192006 | 75 | 335 | 0.9 | 1.7 | 0.00 | 0.00 | 0.00 | 70 | 1019.1 |
| 20260905191505 | 77 | 19 | 0.9 | 1.7 | 0.00 | 0.00 | 0.00 | 71 | 1019.0 |
| 20260905191005 | 77 | 15 | 1.7 | 1.7 | 0.00 | 0.00 | 0.00 | 71 | 1018.9 |
| 20260905190505 | 77 | 341 | 1.7 | 1.7 | 0.00 | 0.00 | 0.00 | 71 | 1019.0 |
| 20260905190005 | 77 | 327 | 1.7 | 1.7 | 0.00 | 0.00 | 0.00 | 70 | 1018.9 |
| 20260905185005 | 77 | 320 | 1.7 | 1.7 | 0.00 | 0.00 | 0.00 | 70 | 1018.8 |
| 20260905184005 | 77 | 331 | 1.7 | 2.6 | 0.00 | 0.00 | 0.00 | 67 | 1018.9 |
| 20260905183505 | 78 | 153 | 1.7 | 2.6 | 0.00 | 0.00 | 0.00 | 67 | 1018.6 |
| 20260905182012 | 78 | 122 | 3.5 | 6.1 | 0.00 | 0.00 | 0.00 | 65 | 1018.4 |
| 20260905181505 | 78 | 118 | 3.5 | 3.5 | 0.00 | 0.00 | 0.00 | 63 | 1018.4 |
| 20260905181005 | 78 | 118 | 2.6 | 3.5 | 0.00 | 0.00 | 0.00 | 61 | 1018.3 |
| 20260905180007 | 79 | 133 | 1.7 | 3.5 | 0.00 | 0.00 | 0.00 | 57 | 1018.3 |
| 20260905175505 | 79 | 131 | 3.5 | 4.3 | 0.00 | 0.00 | 0.00 | 57 | 1018.1 |
| 20260905175005 | 80 | 135 | 4.3 | 5.2 | 0.00 | 0.00 | 0.00 | 56 | 1018.2 |
| 20260905174505 | 80 | 136 | 4.3 | 5.2 | 0.00 | 0.00 | 0.00 | 55 | 1018.1 |
| 20260905174005 | 80 | 130 | 5.2 | 6.1 | 0.00 | 0.00 | 0.00 | 54 | 1018.0 |
| 20260905173505 | 81 | 129 | 6.1 | 7.0 | 0.00 | 0.00 | 0.00 | 53 | 1017.9 |
| 20260905173005 | 81 | 133 | 5.2 | 7.0 | 0.00 | 0.00 | 0.00 | 52 | 1017.9 |
| 20260905172505 | 81 | 133 | 5.2 | 6.1 | 0.00 | 0.00 | 0.00 | 52 | 1017.9 |
| 20260905172005 | 81 | 134 | 5.2 | 6.1 | 0.00 | 0.00 | 0.00 | 52 | 1017.7 |
| 20260905171005 | 82 | 128 | 6.1 | 7.8 | 0.00 | 0.00 | 0.00 | 49 | 1017.7 |
| 20260905170005 | 82 | 122 | 5.2 | 7.0 | 0.00 | 0.00 | 0.00 | 49 | 1017.7 |
| 20260905165506 | 82 | 116 | 6.1 | 7.0 | 0.00 | 0.00 | 0.00 | 51 | 1017.5 |
| 20260905165005 | 83 | 121 | 6.1 | 7.8 | 0.00 | 0.00 | 0.00 | 52 | 1017.6 |
| 20260905164505 | 83 | 122 | 6.1 | 7.8 | 0.00 | 0.00 | 0.00 | 52 | 1017.6 |
| 20260905164006 | 83 | 132 | 7.0 | 9.6 | 0.00 | 0.00 | 0.00 | 52 | 1017.7 |
| 20260905163505 | 84 | 144 | 7.0 | 9.6 | 0.00 | 0.00 | 0.00 | 51 | 1017.6 |
| 20260905163005 | 84 | 140 | 6.1 | 9.6 | 0.00 | 0.00 | 0.00 | 50 | 1017.5 |
| 20260905162505 | 85 | 134 | 5.2 | 8.7 | 0.00 | 0.00 | 0.00 | 48 | 1017.6 |
| 20260905162005 | 85 | 140 | 6.1 | 8.7 | 0.00 | 0.00 | 0.00 | 50 | 1017.4 |
| 20260905161506 | 86 | 145 | 7.8 | 10.4 | 0.00 | 0.00 | 0.00 | 51 | 1017.6 |
| 20260905161005 | 86 | 140 | 9.6 | 10.4 | 0.00 | 0.00 | 0.00 | 51 | 1017.4 |
| 20260905160505 | 87 | 135 | 7.8 | 9.6 | 0.00 | 0.00 | 0.00 | 51 | 1017.3 |
| 20260905160005 | 88 | 137 | 7.0 | 9.6 | 0.00 | 0.00 | 0.00 | 49 | 1017.3 |
| 20260905155505 | 88 | 140 | 7.8 | 9.6 | 0.00 | 0.00 | 0.00 | 48 | 1017.3 |
| 20260905155005 | 89 | 144 | 8.7 | 10.4 | 0.00 | 0.00 | 0.00 | 41 | 1017.3 |
| 20260905154505 | 90 | 149 | 7.8 | 10.4 | 0.00 | 0.00 | 0.00 | 35 | 1017.3 |
| 20260905154006 | 92 | 141 | 5.2 | 9.6 | 0.00 | 0.00 | 0.00 | 30 | 1017.2 |
| 20260905153505 | 93 | 58 | 4.3 | 5.2 | 0.00 | 0.00 | 0.00 | 20 | 1017.1 |
| 20260905153005 | 93 | 39 | 5.2 | 7.8 | 0.00 | 0.00 | 0.00 | 20 | 1017.0 |
| 20260905152506 | 93 | 41 | 7.0 | 9.6 | 0.00 | 0.00 | 0.00 | 20 | 1017.0 |
| 20260905151506 | 94 | 83 | 6.1 | 13.0 | 0.00 | 0.00 | 0.00 | 20 | 1017.1 |
| 20260905150503 | 93 | 31 | 8.7 | 12.2 | 0.00 | 0.00 | 0.00 | 20 | 1017.1 |
| 20260905150004 | 94 | 15 | 7.8 | 12.2 | 0.00 | 0.00 | 0.00 | 20 | 1017.0 |
| 20260905145504 | 94 | 344 | 6.1 | 8.7 | 0.00 | 0.00 | 0.00 | 20 | 1016.8 |
| 20260905144503 | 94 | 64 | 5.2 | 9.6 | 0.00 | 0.00 | 0.00 | 20 | 1017.1 |
| 20260905144004 | 94 | 67 | 5.2 | 7.0 | 0.00 | 0.00 | 0.00 | 12 | 1016.9 |
| 20260905143004 | 94 | 20 | 7.0 | 13.0 | 0.00 | 0.00 | 0.00 | 11 | 1017.0 |
| 20260905142504 | 93 | 35 | 9.6 | 13.0 | 0.00 | 0.00 | 0.00 | 12 | 1017.0 |
| 20260905142004 | 93 | 47 | 8.7 | 13.0 | 0.00 | 0.00 | 0.00 | 11 | 1016.9 |
| 20260905141503 | 94 | 39 | 8.7 | 13.0 | 0.00 | 0.00 | 0.00 | 11 | 1017.0 |
| 20260905141004 | 94 | 27 | 9.6 | 13.0 | 0.00 | 0.00 | 0.00 | 11 | 1016.9 |
| 20260905140503 | 94 | 20 | 10.4 | 14.8 | 0.00 | 0.00 | 0.00 | 12 | 1017.0 |
| 20260905140004 | 94 | 32 | 9.6 | 14.8 | 0.00 | 0.00 | 0.00 | 20 | 1017.0 |
| 20260905135004 | 94 | 8 | 10.4 | 15.6 | 0.00 | 0.00 | 0.00 | 20 | 1017.0 |
| 20260905134504 | 93 | 11 | 12.2 | 15.6 | 0.00 | 0.00 | 0.00 | 20 | 1017.0 |
| 20260905133504 | 94 | 4 | 10.4 | 15.6 | 0.00 | 0.00 | 0.00 | 20 | 1016.9 |
| 20260905133004 | 94 | 3 | 10.4 | 15.6 | 0.00 | 0.00 | 0.00 | 20 | 1016.9 |
| 20260905131504 | 93 | 21 | 11.3 | 14.8 | 0.00 | 0.00 | 0.00 | 20 | 1017.4 |
| 20260905131004 | 93 | 17 | 12.2 | 15.6 | 0.00 | 0.00 | 0.00 | 20 | 1017.1 |
| 20260905130505 | 93 | 13 | 13.0 | 15.6 | 0.00 | 0.00 | 0.00 | 20 | 1017.3 |
| 20260905130004 | 93 | 2 | 12.2 | 14.8 | 0.00 | 0.00 | 0.00 | 20 | 1017.2 |
| 20260905125504 | 93 | 351 | 12.2 | 14.8 | 0.00 | 0.00 | 0.00 | 20 | 1017.4 |
| 20260905125004 | 93 | 337 | 12.2 | 15.6 | 0.00 | 0.00 | 0.00 | 20 | 1017.3 |
| 20260905124004 | 93 | 2 | 13.9 | 16.5 | 0.00 | 0.00 | 0.00 | 20 | 1017.4 |
| 20260905123503 | 93 | 6 | 13.9 | 18.2 | 0.00 | 0.00 | 0.00 | 20 | 1017.4 |
| 20260905123004 | 93 | 355 | 14.8 | 19.1 | 0.00 | 0.00 | 0.00 | 21 | 1017.5 |
| 20260905122004 | 92 | 341 | 13.0 | 16.5 | 0.00 | 0.00 | 0.00 | 21 | 1017.6 |
| 20260905121504 | 92 | 337 | 13.0 | 15.6 | 0.00 | 0.00 | 0.00 | 21 | 1017.5 |
| 20260905120504 | 93 | 347 | 12.2 | 18.2 | 0.00 | 0.00 | 0.00 | 21 | 1017.7 |
| 20260905120004 | 92 | 355 | 12.2 | 14.8 | 0.00 | 0.00 | 0.00 | 21 | 1017.8 |
| 20260905115504 | 92 | 22 | 12.2 | 14.8 | 0.00 | 0.00 | 0.00 | 21 | 1017.8 |
| 20260905115004 | 92 | 9 | 12.2 | 17.4 | 0.00 | 0.00 | 0.00 | 21 | 1017.8 |
| 20260905114504 | 92 | 351 | 11.3 | 17.4 | 0.00 | 0.00 | 0.00 | 21 | 1017.8 |
| 20260905114004 | 92 | 349 | 13.0 | 19.1 | 0.00 | 0.00 | 0.00 | 21 | 1018.0 |
| 20260905113504 | 92 | 6 | 14.8 | 19.1 | 0.00 | 0.00 | 0.00 | 21 | 1018.0 |
| 20260905112505 | 92 | 342 | 14.8 | 18.2 | 0.00 | 0.00 | 0.00 | 21 | 1018.0 |
| 20260905112004 | 92 | 346 | 15.6 | 20.0 | 0.00 | 0.00 | 0.00 | 20 | 1018.1 |
| 20260905111504 | 92 | 7 | 16.5 | 20.0 | 0.00 | 0.00 | 0.00 | 21 | 1018.1 |
| 20260905111005 | 92 | 9 | 18.2 | 20.0 | 0.00 | 0.00 | 0.00 | 21 | 1018.1 |
| 20260905110504 | 92 | 1 | 17.4 | 20.0 | 0.00 | 0.00 | 0.00 | 21 | 1018.2 |
| 20260905110004 | 92 | 355 | 15.6 | 18.2 | 0.00 | 0.00 | 0.00 | 20 | 1018.1 |
| 20260905105504 | 92 | 349 | 16.5 | 20.0 | 0.00 | 0.00 | 0.00 | 20 | 1018.1 |
| 20260905105005 | 92 | 344 | 14.8 | 20.0 | 0.00 | 0.00 | 0.00 | 21 | 1018.0 |
| 20260905104004 | 92 | 353 | 15.6 | 18.2 | 0.00 | 0.00 | 0.00 | 20 | 1018.2 |
| 20260905103504 | 92 | 1 | 13.9 | 18.2 | 0.00 | 0.00 | 0.00 | 21 | 1018.1 |
| 20260905103005 | 91 | 7 | 14.8 | 19.1 | 0.00 | 0.00 | 0.00 | 20 | 1018.1 |
| 20260905102504 | 91 | 353 | 14.8 | 19.1 | 0.00 | 0.00 | 0.00 | 21 | 1018.2 |
| 20260905102004 | 91 | 347 | 13.9 | 16.5 | 0.00 | 0.00 | 0.00 | 20 | 1018.2 |
| 20260905101504 | 91 | 4 | 14.8 | 19.1 | 0.00 | 0.00 | 0.00 | 21 | 1018.2 |
| 20260905101005 | 92 | 4 | 14.8 | 19.1 | 0.00 | 0.00 | 0.00 | 21 | 1018.2 |
| 20260905100504 | 91 | 340 | 15.6 | 19.1 | 0.00 | 0.00 | 0.00 | 21 | 1018.2 |
| 20260905095504 | 90 | 346 | 15.6 | 20.0 | 0.00 | 0.00 | 0.00 | 24 | 1018.1 |
| 20260905095004 | 90 | 343 | 14.8 | 20.0 | 0.00 | 0.00 | 0.00 | 21 | 1018.2 |
| 20260905094006 | 90 | 347 | 11.3 | 14.8 | 0.00 | 0.00 | 0.00 | 24 | 1018.4 |
| 20260905093504 | 90 | 355 | 12.2 | 18.2 | 0.00 | 0.00 | 0.00 | 25 | 1018.3 |
| 20260905093004 | 90 | 353 | 13.9 | 18.2 | 0.00 | 0.00 | 0.00 | 25 | 1018.4 |
| 20260905092504 | 90 | 349 | 14.8 | 18.2 | 0.00 | 0.00 | 0.00 | 25 | 1018.4 |
| 20260905092004 | 90 | 4 | 13.9 | 18.2 | 0.00 | 0.00 | 0.00 | 25 | 1018.5 |
| 20260905091004 | 90 | 347 | 13.0 | 19.1 | 0.00 | 0.00 | 0.00 | 25 | 1018.4 |
| 20260905090505 | 89 | 1 | 11.3 | 16.5 | 0.00 | 0.00 | 0.00 | 25 | 1018.6 |
| 20260905090005 | 89 | 344 | 10.4 | 14.8 | 0.00 | 0.00 | 0.00 | 24 | 1018.5 |
| 20260905085504 | 89 | 336 | 10.4 | 14.8 | 0.00 | 0.00 | 0.00 | 25 | 1018.6 |
| 20260905085004 | 89 | 346 | 12.2 | 15.6 | 0.00 | 0.00 | 0.00 | 25 | 1018.7 |
| 20260905084504 | 89 | 357 | 13.0 | 15.6 | 0.00 | 0.00 | 0.00 | 24 | 1018.8 |